Weather History for KJFZ - November, 2013

Change the Weather History Date:

Wednesday, November 13, 2013

  Actual Average (KBLF) Record (KBLF)
Temperature  
Mean Temperature 29 °F 48 °F  
Max Temperature 36 °F 57 °F 75 °F (1989)
Min Temperature 22 °F 40 °F 11 °F (1986)
Degree Days  
Heating Degree Days 36 17  
Month to date heating degree days 195  
Since 1 July heating degree days 559  
Cooling Degree Days 0 0  
Month to date cooling degree days 0  
Year to date cooling degree days 851  
Moisture  
Dew Point 18 °F    
Average Humidity 63    
Maximum Humidity 84    
Minimum Humidity 46    
Precipitation  
Precipitation 0.00 in 0.08 in 0.60 in (2008)
Month to date precipitation 1.11  
Year to date precipitation 35.14  
Snow  
Snow 0.00 in - - ()
Month to date snowfall  
Since 1 July snowfall  
Since 1 September snowfall  
Snow Depth -    
Sea Level Pressure  
Sea Level Pressure 30.45 in    
Wind  
Wind Speed 6 mph (NW)    
Max Wind Speed 12 mph    
Max Gust Speed 16 mph    
Visibility 10 miles    
Events      
T = Trace of Precipitation, MM = Missing Value Source: NWS Daily Summary

Daily Weather History Graph

Daily Weather History Graph

Search for Another Location

Airport or City:

Trip Planner

Search our weather history database for the weather conditions in past years. The results will help you decide how hot, cold, wet, or windy it might be!

Date:

Astronomy

Nov. 13, 2013 Rise Set
Actual Time 7:04 AM EST 5:18 PM EST
Civil Twilight 6:36 AM EST 5:46 PM EST
Nautical Twilight 6:05 AM EST 6:17 PM EST
Astronomical Twilight 5:34 AM EST 6:48 PM EST
Moon 3:00 PM EST (11/13) 3:01 AM EST (11/13)
Length of Visible Light 11h 09m
Length of Day
10h 14m
Waxing Gibbous, 84% of the Moon is Illuminated
Nov 13
Waxing Gibbous
Nov 17
Full
Nov 25
Last Quarter
Dec 2
New
Dec 9
First Quarter

Hourly Weather History & Observations

Time (EST) Temp. Windchill Dew Point Humidity Pressure Visibility Wind Dir Wind Speed Gust Speed Precip Events Conditions
12:15 AM 26.6 °F 20.0 °F 19.9 °F 76% 30.43 in - NNW 5.8 mph - N/A   Overcast
12:35 AM 26.4 °F 19.8 °F 21.2 °F 81% 30.43 in - NNW 5.8 mph - N/A   Overcast
12:55 AM 26.2 °F 17.8 °F 21.2 °F 81% 30.44 in - NNW 8.1 mph - N/A   Overcast
1:15 AM 26.2 °F 17.1 °F 21.0 °F 81% 30.44 in - NNW 9.2 mph - N/A   Overcast
1:35 AM 26.2 °F 15.8 °F 20.5 °F 79% 30.44 in - NNW 11.5 mph - N/A   Overcast
1:55 AM 26.1 °F 16.2 °F 19.2 °F 75% 30.44 in - NNW 10.4 mph - N/A   Overcast
2:15 AM 25.7 °F 16.4 °F 18.7 °F 75% 30.44 in - NNW 9.2 mph 16.1 mph N/A   Overcast
2:35 AM 25.7 °F 18.0 °F 18.5 °F 74% 30.44 in - NNW 6.9 mph - N/A   Overcast
2:55 AM 25.3 °F 17.6 °F 18.1 °F 74% 30.44 in - NNW 6.9 mph - N/A   Overcast
3:15 AM 24.8 °F 17.9 °F 17.2 °F 73% 30.43 in - NNW 5.8 mph - N/A   Mostly Cloudy
3:35 AM 24.4 °F 15.6 °F 17.1 °F 73% 30.43 in - NNW 8.1 mph - N/A   Mostly Cloudy
3:55 AM 23.7 °F 14.0 °F 17.2 °F 76% 30.44 in - NNW 9.2 mph - N/A   Scattered Clouds
4:15 AM 23.5 °F 14.5 °F 17.2 °F 77% 30.44 in - NNW 8.1 mph - N/A   Scattered Clouds
4:35 AM 23.0 °F 15.8 °F 17.6 °F 80% 30.45 in - NNW 5.8 mph - N/A   Mostly Cloudy
4:55 AM 23.0 °F 13.9 °F 18.0 °F 81% 30.45 in - NNW 8.1 mph - N/A   Overcast
5:15 AM 22.6 °F 16.5 °F 18.0 °F 82% 30.45 in - NNW 4.6 mph - N/A   Unknown
5:35 AM 22.8 °F 15.5 °F 18.1 °F 82% 30.46 in - NNW 5.8 mph - N/A   Overcast
5:55 AM 23.0 °F 15.8 °F 18.3 °F 82% 30.46 in - NNW 5.8 mph - N/A   Overcast
6:15 AM 23.0 °F 18.4 °F 18.5 °F 83% 30.46 in - NW 3.5 mph - N/A   Overcast
6:35 AM 23.2 °F - 18.5 °F 82% 30.47 in - Calm Calm - N/A   Overcast
6:55 AM 23.2 °F - 18.5 °F 82% 30.47 in - Calm Calm - N/A   Overcast
7:15 AM 23.4 °F 18.9 °F 19.0 °F 84% 30.48 in - NNW 3.5 mph - N/A   Overcast
7:35 AM 23.7 °F 15.6 °F 19.4 °F 84% 30.49 in - NNW 6.9 mph - N/A   Overcast
7:55 AM 23.9 °F 16.8 °F 19.2 °F 82% 30.49 in - NNW 5.8 mph - N/A   Overcast
8:15 AM 24.8 °F 20.5 °F 19.0 °F 79% 30.50 in - NW 3.5 mph - N/A   Overcast
8:35 AM 25.7 °F 20.1 °F 18.7 °F 75% 30.49 in - North 4.6 mph - N/A   Overcast
8:55 AM 25.7 °F 20.1 °F 18.3 °F 74% 30.50 in - North 4.6 mph - N/A   Overcast
9:15 AM 26.2 °F 18.6 °F 18.3 °F 72% 30.51 in - NNW 6.9 mph - N/A   Overcast
9:35 AM 26.1 °F 19.4 °F 18.1 °F 72% 30.51 in - NNW 5.8 mph - N/A   Overcast
9:55 AM 26.6 °F 17.5 °F 17.6 °F 69% 30.51 in - NNW 9.2 mph - N/A   Mostly Cloudy
10:15 AM 28.0 °F 18.6 °F 17.2 °F 64% 30.52 in - NNW 10.4 mph - N/A   Scattered Clouds
10:35 AM 28.6 °F 22.4 °F 18.3 °F 65% 30.52 in - NNW 5.8 mph - N/A   Mostly Cloudy
10:55 AM 30.0 °F 26.5 °F 17.8 °F 60% 30.52 in - NNW 3.5 mph - N/A   Scattered Clouds
11:15 AM 30.2 °F 26.7 °F 18.1 °F 61% 30.51 in 10.0 mi WNW 3.5 mph - N/A   Scattered Clouds
11:35 AM 30.7 °F 24.1 °F 19.0 °F 62% 30.50 in 10.0 mi West 6.9 mph - N/A   Clear
11:55 AM 31.3 °F 26.6 °F 17.4 °F 57% 30.50 in 10.0 mi NW 4.6 mph - N/A   Clear
12:15 PM 32.0 °F 25.6 °F 17.8 °F 56% 30.49 in 10.0 mi WNW 6.9 mph - N/A   Clear
12:35 PM 33.1 °F 30.0 °F 17.6 °F 53% 30.48 in 10.0 mi NW 3.5 mph - N/A   Clear
12:55 PM 33.4 °F 28.1 °F 18.0 °F 53% 30.48 in 10.0 mi West 5.8 mph - N/A   Clear
1:15 PM 33.6 °F 26.8 °F 17.1 °F 51% 30.47 in 10.0 mi NNW 8.1 mph - N/A   Clear
1:35 PM 34.3 °F 29.2 °F 17.6 °F 50% 30.47 in 10.0 mi NNW 5.8 mph - N/A   Clear
1:55 PM 35.2 °F 28.8 °F 17.6 °F 49% 30.47 in 10.0 mi West 8.1 mph - N/A   Clear
2:15 PM 35.6 °F 31.7 °F 18.5 °F 50% 30.45 in 10.0 mi West 4.6 mph - N/A   Clear
2:35 PM 35.6 °F 29.2 °F 17.2 °F 47% 30.45 in 10.0 mi West 8.1 mph - N/A   Clear
2:55 PM 36.1 °F 31.4 °F 18.1 °F 48% 30.45 in 10.0 mi NW 5.8 mph - N/A   Clear
3:15 PM 36.1 °F 32.3 °F 17.1 °F 46% 30.45 in 10.0 mi West 4.6 mph - N/A   Clear
3:35 PM 36.0 °F 31.1 °F 17.6 °F 47% 30.45 in 10.0 mi NW 5.8 mph - N/A   Clear
3:55 PM 36.1 °F 32.3 °F 16.9 °F 46% 30.45 in 10.0 mi NW 4.6 mph - N/A   Clear
4:15 PM 36.1 °F 32.3 °F 17.2 °F 46% 30.45 in 10.0 mi NW 4.6 mph - N/A   Clear
4:35 PM 35.4 °F 31.5 °F 16.7 °F 47% 30.45 in 10.0 mi WNW 4.6 mph - N/A   Clear
4:55 PM 34.7 °F - 16.7 °F 48% 30.45 in 10.0 mi Calm Calm - N/A   Clear
5:15 PM 34.3 °F - 16.3 °F 48% 30.45 in 10.0 mi Calm Calm - N/A   Clear
5:35 PM 33.3 °F - 16.0 °F 49% 30.45 in 10.0 mi Calm Calm - N/A   Clear
5:55 PM 33.1 °F 30.0 °F 16.2 °F 50% 30.44 in 10.0 mi West 3.5 mph - N/A   Clear
6:15 PM 33.1 °F 30.0 °F 16.2 °F 50% 30.44 in 10.0 mi West 3.5 mph - N/A   Clear
6:35 PM 32.9 °F - 16.2 °F 50% 30.45 in 10.0 mi Calm Calm - N/A   Clear
6:55 PM 32.9 °F - 16.3 °F 51% 30.44 in 10.0 mi Calm Calm - N/A   Clear
7:15 PM 32.9 °F - 16.5 °F 51% 30.44 in 10.0 mi Calm Calm - N/A   Clear
7:35 PM 32.0 °F - 16.3 °F 52% 30.43 in 10.0 mi Calm Calm - N/A   Clear
7:55 PM 32.0 °F - 16.3 °F 52% 30.42 in 10.0 mi Calm Calm - N/A   Clear
8:15 PM 32.2 °F - 16.3 °F 52% 30.43 in 10.0 mi Calm Calm - N/A   Clear
8:35 PM 31.6 °F - 16.7 °F 54% 30.42 in 10.0 mi Calm Calm - N/A   Clear
8:55 PM 31.5 °F 28.1 °F 16.7 °F 54% 30.42 in 10.0 mi South 3.5 mph - N/A   Clear
9:15 PM 32.0 °F 28.7 °F 16.3 °F 52% 30.41 in 10.0 mi South 3.5 mph - N/A   Clear
9:35 PM 32.2 °F 28.9 °F 15.8 °F 51% 30.41 in 10.0 mi SSE 3.5 mph - N/A   Clear
9:55 PM 31.8 °F 27.3 °F 16.2 °F 52% 30.41 in 10.0 mi SSE 4.6 mph - N/A   Clear
10:15 PM 32.4 °F - 15.8 °F 51% 30.40 in 10.0 mi Calm Calm - N/A   Clear
10:35 PM 30.6 °F 27.1 °F 17.1 °F 57% 30.40 in 10.0 mi South 3.5 mph - N/A   Clear
10:55 PM 30.9 °F - 16.5 °F 55% 30.40 in 10.0 mi Calm Calm - N/A   Clear
11:15 PM 31.6 °F - 16.2 °F 53% 30.40 in 10.0 mi Calm Calm - N/A   Clear
11:35 PM 31.5 °F 28.1 °F 16.2 °F 53% 30.40 in 10.0 mi SSW 3.5 mph - N/A   Clear
11:55 PM 32.2 °F - 15.3 °F 50% 30.39 in 10.0 mi Calm Calm - N/A   Clear